This is the latest recevied weather packets stored in our database for station/object NC4J. If no packets are shown the sender has not sent any weather packets the latest 10 day(s).
| Time | Temp. | Humidity | Pressure | Rain* | Wind** | Luminosity | Snow |
|---|---|---|---|---|---|---|---|
| 1777944485 | 17.22° C | 46% | 1016 hPa | 0 mm | - | 0 W/m² | - |
| 1777944182 | 17.22° C | 47% | 1016.2 hPa | 0 mm | - | 0 W/m² | - |
| 1777943877 | 17.22° C | 47% | 1016.1 hPa | 0 mm | - | 0 W/m² | - |
| 1777943575 | 17.22° C | 47% | 1015.8 hPa | 0 mm | - | 0 W/m² | - |
| 1777943270 | 17.78° C | 45% | 1015.8 hPa | 0 mm | - | 0 W/m² | - |
| 1777942967 | 17.78° C | 45% | 1015.7 hPa | 0 mm | - | 0 W/m² | - |
| 1777942663 | 17.78° C | 46% | 1015.8 hPa | 0 mm | - | 0 W/m² | - |
| 1777942360 | 17.78° C | 45% | 1015.6 hPa | 0 mm | - | 0 W/m² | - |
| 1777942057 | 17.78° C | 45% | 1015.8 hPa | 0 mm | - | 0 W/m² | - |
| 1777941753 | 18.33° C | 46% | 1015.6 hPa | 0 mm | - | 0 W/m² | - |
| 1777941451 | 18.33° C | 46% | 1015.6 hPa | 0 mm | - | 0 W/m² | - |
| 1777941149 | 18.33° C | 45% | 1015.5 hPa | 0 mm | - | 0 W/m² | - |
| 1777940845 | 18.33° C | 45% | 1015.4 hPa | 0 mm | - | 0 W/m² | - |
| 1777940542 | 18.33° C | 45% | 1015.3 hPa | 0 mm | - | 1 W/m² | - |
| 1777940240 | 18.33° C | 44% | 1015.3 hPa | 0 mm | - | 1 W/m² | - |
| 1777939937 | 18.89° C | 45% | 1015.3 hPa | 0 mm | - | 2 W/m² | - |
| 1777939634 | 18.89° C | 45% | 1015.3 hPa | 0 mm | - | 3 W/m² | - |
| 1777939332 | 18.89° C | 45% | 1015.3 hPa | 0 mm | - | 5 W/m² | - |
| 1777939028 | 19.44° C | 43% | 1015.2 hPa | 0 mm | - | 7 W/m² | - |
| 1777938724 | 19.44° C | 43% | 1015.4 hPa | 0 mm | - | 9 W/m² | - |
| 1777938422 | 20° C | 41% | 1015.2 hPa | 0 mm | - | 10 W/m² | - |
| 1777938119 | 20° C | 41% | 1015.2 hPa | 0 mm | - | 14 W/m² | - |
| 1777937814 | 20.56° C | 40% | 1015.2 hPa | 0 mm | - | 16 W/m² | - |
| 1777937510 | 20.56° C | 40% | 1015.3 hPa | 0 mm | - | 19 W/m² | - |
| 1777937208 | 20.56° C | 39% | 1015.1 hPa | 0 mm | - | 24 W/m² | - |
* Rain latest hour (hover to see other rain measurements)
** Current wind speed in m/s (hover to see current wind gust speed)